CZ-6A DEB

Satellite information

Favourite Embed

Satellite Type and Status

DEBRISIN ORBIT

Key statistics

Satellite CZ-6A DEB at a glance.

Uptime

1027

Days in orbit

Revolutions

≈ 14.1

Per day

Orbit

SSO

Sun Synchronous Orbit

Inclination

98.8

Latest

Satellite identification and parameters

Extended collection of information and parameters for CZ-6A DEB.

Object identification

Identified? True

Debris? True

Object name: CZ-6A DEB

International designator: 2022-151AJ

Object number (NORAD): 54291

Object ID (CCSDS): 54291

Country: PEOPLES REPUBLIC OF CHINA (PRC)

Current information (Y/N): Y

RCS size: SMALL

Orbital parameters

Period: 102.446 minutes

Inclination: 98.843 deg

SMA: 7252.536 km

Apoapsis: 933.48 km

Periapsis: 815.321 km

RAAN: 238.7791 deg

Eccentricy: 0.00814606

Argument of periapsis: 42.1416 deg

Mean anomaly: 318.5977 deg

Mean motion: 14.05620046 rev/day

Mean motion (dot): 0.00000532 rev/day2

B* drag term: 0.00034265264 1/REarth

Two-line elements (TLE)

Creation date: Sept. 3, 2025, 2:21 a.m.

Reference frame: TEME

Reference center: EARTH

Epoch: Sept. 2, 2025, 10:01 p.m. UTC

TLE line 0: 0 CZ-6A DEB

TLE line 1: 1 54291U 22151AJ 25245.91747555 .00000532 00000-0 34265-3 0 9996

TLE line 2: 2 54291 98.8430 238.7791 0081461 42.1416 318.5977 14.05620046143534

Live tracking on map

Real-time ground track for satellite CZ-6A DEB.

In-orbit conjunctions

A list of the most updated potential collisions computed for object CZ-6A DEB.

Target Orbit TCA Probability of collision Miss distance Type
SL-16 R/B LEO 2025-02-01 21:43:56 0.0001820205 60.0 (m) ROCKET BODY
DELTA 1 DEB SSO 2024-11-11 19:30:50 0.000147396 233.0 (m) DEBRIS
COSMOS 1275 DEB LEO 2024-09-02 20:57:59 0.0001143215 121.0 (m) DEBRIS

Associated space launch

Chinese satellite reported for atmospheric/ocean/environmental/spatial parameter research purposes, details TBD.

CZ-6A DEB was lifted into orbit during the mission ‘Long March 6A | Yunhai 3’, on board a Long March 6A space rocket.

The launch took place on Nov. 11, 2022, 10:52 p.m. from Launch Complex 9A.

For more information about the launch, click the button.

Launch to space Long March 6A | Yunhai 3
Long March 6A | Yunhai 3

Agency: N/A

Status: Launch Successful

Launch date: Nov. 11, 2022, 10:52 p.m. UTC

Rocket: Long March 6A

Launch pad: Launch Complex 9A

Location: Taiyuan Satellite Launch Center, People's Republic of China

...

Latest news about this satellite

There are no fresh news available about this satellite. Check back as we update our databases every day.


Newsletter sign-up

Weekly statistics, charts and insights to help you stay on top of the space industry.